Погода в Юбилейном

Россия / Кировская область     58°28′38″N   49°12′19″E
темп.,
°C
ветер,
м/с
пор.,
м/с
влажн.,
%
обл.,
%
осадки,
мм/ч
давл.,
гПа
погр.,
м
27 октября, ср
ср2700:00+1юз4995100 0.1 1014515
03:000юз4995100 0.1 1014360
06:000юз4994100 0.0 1012354
09:00+1юз4994100 0.0 1012352
12:00+2юз4889100 0.0 1011493
15:00+2ююз51087100 0.0 1009540
18:00+2ююз51288100 0.0 1007575
21:00+2юз61393100 0.0 1005702
28 октября, чт
чт2800:00+2юз61297100 1.3 1003852
03:00+3зюз61297100 1.6 1003979
06:00+4з61293100 0.5 10031092
09:00+5з5985100 0.8 10051092
12:00+5з6118795 0.3 1006766
15:00+5з51089100 0.4 1007796
18:00+1ссз51090100 0.9 1011753
21:00−3с5107733 0.9 1016707
29 октября, пт
пт2900:00−4с510779 0.0 1019705
03:00−4ссз49755 0.0 1022570
06:00−5ссз26765 0.0 1025360
09:00−3сз236754 0.0 1027299
12:00−1зюз235471 0.0 1028552
15:00−1юз365894 0.0 1027405
18:00−1ююз51157100 0.0 1025538
21:00−1ююз61357100 0.6 1022685
30 октября, сб
сб3000:00−1юз71596100 3.3 1019643
03:00+2юз71692100 4.2 1016618
06:00+5зюз81695100 0.0 1015709
09:00+6з71593100 0.0 1016673
12:00+7з7148899 0.0 1017624
15:00+6з61290100 0.0 1019492
18:00+5з4119363 0.0 1021377
21:00+4з399599 0.0 1023264
31 октября, вс
вс3100:00+5зюз3895100 0.0 1023199
03:00+5зюз3893100 0.1 1023181
06:00+5юз3596100 0.1 1023120
09:00+6юз3896100 0.1 1023231
12:00+8юз51189100 0.0 1021533
15:00+7юз51278100 0.0 1020461
18:00+6зюз61384100 0.0 1020458
21:00+5зюз5129186 0.0 1021425